Waarnemingen

Advertentie
Mijn weer
Paharova, Zweden (2184): temperatuur & dauwpunt: 17.07.2018 02:00:00 - 23.07.2018 02:00:00 (CEST)Paharova, Zweden (2184): windsnelheid & windstoten: 17.07.2018 02:00:00 - 23.07.2018 02:00:00 (CEST)Paharova, Zweden (2184): windrichting: 17.07.2018 02:00:00 - 23.07.2018 02:00:00 (CEST)Paharova, Zweden (2184): luchtdruk: 17.07.2018 02:00:00 - 23.07.2018 02:00:00 (CEST)Paharova, Zweden (2184): zicht: 17.07.2018 02:00:00 - 23.07.2018 02:00:00 (CEST)Paharova, Zweden (2184): neerslag: 17.07.2018 02:00:00 - 23.07.2018 02:00:00 (CEST)
Datum & Tijd tt [°C] td [°C] ff [km/u] ff [kn] fx [km/u] fx [kn] dd ppp [hPa] vv [km] rr [mm]
23.07.2018 02:00:00 17,5 16,1 4 2 9 5 Z 1003,7 23 0,0
23.07.2018 01:00:00 17,7 16,9 3 1 8 5 ZZW 1003,8 17 0,1
23.07.2018 00:00:00 18,2 17,0 4 2 12 7 Z 1003,5 19 0,0
22.07.2018 23:00:00 18,2 16,9 4 2 8 5 Z 1003,3 22 0,0
22.07.2018 22:00:00 18,9 16,3 2 1 6 4 Z 1002,9 30 0,0
22.07.2018 21:00:00 19,6 17,4 3 1 8 4 W 1002,5 28 0,0
22.07.2018 20:00:00 20,2 17,0 2 1 5 3 ZZW 1002,3 38 0,0
22.07.2018 19:00:00 20,6 17,4 0 0 11 6 N 1002,4 33 0,1
22.07.2018 18:00:00 21,7 17,3 3 2 12 6 W 1002,3 33 0,0
22.07.2018 17:00:00 22,1 16,4 9 5 22 12 N 1001,9 28 0,0
22.07.2018 16:00:00 24,2 16,5 3 2 13 7 O 1001,5 29 0,0
22.07.2018 15:00:00 24,3 16,8 5 3 11 6 NNW 1001,8 27 0,0
22.07.2018 14:00:00 22,7 17,4 3 2 11 6 O 1001,9 31 0,0
22.07.2018 13:00:00 21,8 16,7 4 2 13 7 O 1002,3 33 0,0
22.07.2018 12:00:00 20,8 17,2 8 5 14 8 NNO 1002,6 21 0,0
22.07.2018 11:00:00 20,8 18,4 7 4 12 6 N 1002,6 17 0,0
22.07.2018 10:00:00 20,6 18,9 4 2 9 5 N 1003,2 17 0,0
22.07.2018 09:00:00 18,9 18,6 3 1 11 6 N 1003,2 11 0,0
22.07.2018 08:00:00 17,5 17,5 5 3 6 4 NNO 1003,5 5 0,1
22.07.2018 07:00:00 16,9 16,9 2 1 5 3 N 1003,5 3,4 1,4
22.07.2018 06:00:00 16,7 16,7 3 2 7 4 NNO 1003,6 6 0,4
22.07.2018 05:00:00 16,8 16,6 0 0 8 4 N 1003,9 10 0,0
22.07.2018 04:00:00 16,8 16,5 4 2 9 5 ONO 1003,8 12 0,0
22.07.2018 03:00:00 16,5 16,3 5 3 9 5 NO 1004,1 13 0,0
22.07.2018 02:00:00 16,8 16,6 0 0 9 5 N 1004,2 16 0,0
22.07.2018 01:00:00 17,8 16,0 4 2 11 6 ZO 1004,7 19 0,0
22.07.2018 00:00:00 18,6 16,2 5 3 7 4 O 1005,0 23 0,0
21.07.2018 23:00:00 19,7 16,2 4 2 8 4 O 1005,1 27 0,0
21.07.2018 22:00:00 20,1 16,3 3 2 9 5 OZO 1005,4 29 0,0
21.07.2018 21:00:00 21,0 16,4 3 2 13 7 ZZO 1005,4 28 0,0
21.07.2018 20:00:00 22,9 16,7 4 2 18 10 Z 1004,9 35 0,0
21.07.2018 19:00:00 24,1 15,3 4 2 10 5 ZO 1004,8 41 0,0
21.07.2018 18:00:00 23,2 18,1 3 2 11 6 ZZW 1005,4 32 0,0
21.07.2018 17:00:00 23,5 18,6 2 1 6 3 NNW 1005,8 26 0,0
21.07.2018 16:00:00 21,4 17,8 0 0 8 4 N 1006,5 40 0,0
21.07.2018 15:00:00 20,4 16,6 0 0 7 4 N 1007,0 23 0,4
21.07.2018 14:00:00 17,7 16,4 2 1 26 14 ZZW 1008,0 11 0,3
21.07.2018 13:00:00 23,5 15,8 9 5 23 13 OZO 1007,2 - 0,0
21.07.2018 12:00:00 26,0 16,5 5 3 13 7 WZW 1007,4 35 0,0
21.07.2018 11:00:00 21,9 15,7 6 3 14 8 ZO 1008,4 32 0,0
21.07.2018 10:00:00 21,4 14,5 6 3 26 14 ZZO 1008,9 29 0,0
21.07.2018 09:00:00 22,2 14,1 4 2 8 4 ZO 1008,9 32 0,0
21.07.2018 08:00:00 23,7 12,7 4 2 8 4 ONO 1009,0 42 0,0
21.07.2018 07:00:00 23,2 12,2 3 2 8 4 ONO 1009,0 36 0,0
21.07.2018 06:00:00 20,5 12,5 3 2 7 4 O 1009,5 44 0,0
21.07.2018 05:00:00 18,7 11,5 4 2 8 4 NO 1010,0 44 0,0
21.07.2018 04:00:00 17,5 11,1 3 2 5 3 ONO 1010,1 50 0,0
21.07.2018 03:00:00 18,0 10,4 3 1 4 2 O 1010,4 50 0,0
21.07.2018 02:00:00 18,1 10,2 0 0 5 3 N 1010,5 50 0,0
21.07.2018 01:00:00 19,8 10,5 2 1 7 4 ZZO 1010,7 50 0,0
21.07.2018 00:00:00 19,8 10,8 3 2 6 3 ZZO 1010,8 50 0,0
20.07.2018 23:00:00 20,6 11,0 3 1 5 3 ZO 1010,9 50 0,0
20.07.2018 22:00:00 21,9 11,3 2 1 7 4 ZO 1010,8 47 0,0
20.07.2018 21:00:00 23,2 11,3 2 1 4 2 ZO 1010,8 50 0,0
20.07.2018 20:00:00 24,3 10,9 2 1 15 8 ZZW 1011,0 50 0,0
20.07.2018 19:00:00 25,8 10,8 6 3 19 10 Z 1011,0 50 0,0
20.07.2018 18:00:00 26,3 10,4 8 4 20 11 ZZO 1011,0 50 0,0
20.07.2018 17:00:00 26,9 9,7 10 5 27 15 ZZO 1011,3 48 0,0
20.07.2018 16:00:00 28,6 11,2 9 5 24 13 ZZO 1011,2 39 0,0
20.07.2018 15:00:00 29,2 10,8 11 6 27 14 Z 1011,8 36 0,0
20.07.2018 14:00:00 26,6 11,5 10 5 28 15 ZZO 1012,2 46 0,0
20.07.2018 13:00:00 26,7 10,8 11 6 32 17 OZO 1012,5 38 0,0
20.07.2018 12:00:00 27,3 11,3 10 5 24 13 ZZO 1012,9 45 0,0
20.07.2018 11:00:00 28,0 11,5 8 5 22 12 Z 1013,2 43 0,0
20.07.2018 10:00:00 26,9 13,3 5 3 16 9 Z 1013,5 37 0,0
20.07.2018 09:00:00 24,8 14,3 6 3 11 6 O 1013,9 27 0,0
20.07.2018 08:00:00 24,4 14,2 0 0 6 3 N 1014,1 42 0,0
20.07.2018 07:00:00 22,6 13,6 2 1 6 3 ZZW 1014,5 45 0,0
20.07.2018 06:00:00 21,5 13,1 2 1 8 4 ZO 1014,7 50 0,0
20.07.2018 05:00:00 18,7 11,3 5 3 9 5 OZO 1014,9 49 0,0
20.07.2018 04:00:00 17,6 9,5 4 2 8 4 ONO 1015,1 50 0,0
20.07.2018 03:00:00 16,7 9,1 0 0 10 5 N 1015,3 50 0,0
20.07.2018 02:00:00 18,8 9,3 6 3 12 6 OZO 1015,4 50 0,0
20.07.2018 01:00:00 19,2 9,1 6 4 11 6 OZO 1015,4 50 0,0
20.07.2018 00:00:00 19,7 9,0 6 3 9 5 OZO 1015,4 50 0,0
19.07.2018 23:00:00 20,4 9,3 3 2 8 4 ZO 1015,2 50 0,0
19.07.2018 22:00:00 22,0 8,8 3 2 7 4 ZZO 1015,0 50 0,0
19.07.2018 21:00:00 23,7 10,0 3 2 7 4 Z 1014,7 50 0,0
19.07.2018 20:00:00 24,8 9,1 3 2 18 10 ZW 1014,6 50 0,0
19.07.2018 19:00:00 26,5 8,5 9 5 26 14 Z 1014,5 50 0,0
19.07.2018 18:00:00 26,8 8,7 9 5 26 14 ZZW 1014,4 50 0,0
19.07.2018 17:00:00 27,5 8,4 15 8 29 16 ZZO 1014,6 50 0,0
19.07.2018 16:00:00 28,4 11,5 12 6 29 16 Z 1014,5 37 0,0
19.07.2018 15:00:00 28,8 11,8 13 7 34 18 Z 1014,7 40 0,0
19.07.2018 14:00:00 28,4 11,0 14 7 34 19 ZZO 1015,3 36 0,0
19.07.2018 13:00:00 28,4 12,7 13 7 27 15 ZZO 1015,4 46 0,0
19.07.2018 12:00:00 27,9 13,1 13 7 26 14 ZO 1015,7 33 0,0
19.07.2018 11:00:00 27,6 12,4 10 5 23 13 ZZO 1015,8 41 0,0
19.07.2018 10:00:00 27,2 12,8 8 4 18 10 ZZO 1015,9 - 0,0
19.07.2018 09:00:00 26,1 15,2 6 3 19 10 ZO 1016,1 39 0,0
19.07.2018 08:00:00 24,2 14,9 9 5 15 8 ZZO 1016,3 44 0,0
19.07.2018 07:00:00 23,8 15,0 6 3 21 12 ZZO 1016,4 43 0,0
19.07.2018 06:00:00 22,5 14,1 7 4 22 12 ZZO 1016,6 44 0,0
19.07.2018 05:00:00 21,3 12,7 4 2 15 8 ZZO 1016,6 42 0,0
19.07.2018 04:00:00 20,6 10,4 6 3 15 8 ZO 1016,7 50 0,0
19.07.2018 03:00:00 19,4 9,6 5 3 14 8 ZO 1017,0 50 0,0
19.07.2018 02:00:00 18,7 9,2 4 2 9 5 ZO 1017,1 50 0,0
19.07.2018 01:00:00 19,3 8,9 5 3 8 4 OZO 1016,9 50 0,0
19.07.2018 00:00:00 20,8 9,1 4 2 10 5 ZO 1016,8 50 0,0
18.07.2018 23:00:00 21,9 8,4 4 2 10 5 ZO 1016,6 50 0,0
18.07.2018 22:00:00 23,3 7,8 4 2 13 7 ZZO 1016,4 50 0,0
18.07.2018 21:00:00 25,1 7,2 6 3 18 10 Z 1016,2 50 0,0
18.07.2018 20:00:00 27,3 7,2 11 6 26 14 Z 1015,9 50 0,0
18.07.2018 19:00:00 28,1 12,8 12 6 27 14 Z 1015,7 49 0,0
18.07.2018 18:00:00 29,3 11,8 11 6 25 14 ZO 1015,7 50 0,0
18.07.2018 17:00:00 30,1 11,6 11 6 24 13 ZZO 1016,1 47 0,0
18.07.2018 16:00:00 30,2 13,5 11 6 27 15 ZO 1016,4 31 0,0
18.07.2018 15:00:00 30,4 13,7 12 6 31 17 ZO 1016,7 31 0,0
18.07.2018 14:00:00 30,7 13,9 11 6 26 14 ZO 1017,1 33 0,0
18.07.2018 13:00:00 28,9 13,6 9 5 22 12 ZZO 1017,6 36 0,0
18.07.2018 12:00:00 30,1 14,2 10 6 24 13 Z 1017,8 23 0,0
18.07.2018 11:00:00 30,0 14,5 6 4 19 10 ZZW 1018,0 30 0,0
18.07.2018 10:00:00 29,0 14,0 5 3 13 7 Z 1018,3 34 0,0
18.07.2018 09:00:00 27,1 13,8 3 2 9 5 Z 1018,6 43 0,0
18.07.2018 08:00:00 26,0 14,1 2 1 6 4 ZW 1018,8 37 0,0
18.07.2018 07:00:00 24,8 14,6 3 2 9 5 Z 1018,9 36 0,0
18.07.2018 06:00:00 23,1 14,1 3 2 10 6 ZO 1019,0 36 0,0
18.07.2018 05:00:00 20,8 13,7 3 2 6 4 OZO 1019,3 28 0,0
18.07.2018 04:00:00 19,6 12,8 4 2 6 3 OZO 1019,4 38 0,0
18.07.2018 03:00:00 18,7 12,2 3 2 8 4 ZO 1019,6 45 0,0
18.07.2018 02:00:00 19,1 12,4 4 2 7 4 OZO 1019,1 48 0,0
18.07.2018 01:00:00 18,6 11,7 5 3 7 4 O 1019,0 50 0,0
18.07.2018 00:00:00 20,1 11,6 3 2 6 4 OZO 1018,8 50 0,0
17.07.2018 23:00:00 21,7 11,4 4 2 9 5 ZZO 1018,5 47 0,0
17.07.2018 22:00:00 23,3 11,4 3 2 11 6 ZO 1018,1 50 0,0
17.07.2018 21:00:00 24,7 10,9 4 2 16 9 ZZO 1017,7 50 0,0
17.07.2018 20:00:00 26,2 11,2 5 3 19 10 ZZO 1017,6 50 0,0
17.07.2018 19:00:00 27,0 11,5 7 4 18 10 Z 1017,5 50 0,0
17.07.2018 18:00:00 27,4 10,1 7 4 19 10 ZZW 1017,6 50 0,0
17.07.2018 17:00:00 28,6 6,1 9 5 23 12 Z 1017,6 50 0,0
17.07.2018 16:00:00 29,2 8,8 8 4 22 12 Z 1017,6 50 0,0
17.07.2018 15:00:00 29,3 7,8 8 4 19 10 Z 1017,8 41 0,0
17.07.2018 14:00:00 28,5 9,2 9 5 21 12 Z 1018,1 39 0,0
17.07.2018 13:00:00 28,2 9,9 5 3 19 11 Z 1018,2 32 0,0
17.07.2018 12:00:00 26,7 9,5 5 3 19 10 Z 1018,3 42 0,0
17.07.2018 11:00:00 26,2 9,9 6 3 18 10 ZZW 1018,5 44 0,0
17.07.2018 10:00:00 25,6 9,4 5 3 18 10 Z 1018,6 48 0,0
17.07.2018 09:00:00 23,9 10,2 6 3 18 10 Z 1018,8 43 0,0
17.07.2018 08:00:00 23,1 9,8 6 3 13 7 Z 1018,9 41 0,0
17.07.2018 07:00:00 22,4 12,1 2 1 7 4 ZZO 1018,8 43 0,0
17.07.2018 06:00:00 20,9 12,3 3 2 9 5 ZZO 1018,8 43 0,0
17.07.2018 05:00:00 18,5 11,8 3 2 13 7 ZZO 1019,1 50 0,0
17.07.2018 04:00:00 18,2 10,8 5 3 9 5 Z 1018,8 50 0,0
17.07.2018 03:00:00 17,1 10,5 2 1 7 4 ZO 1018,6 50 0,0
17.07.2018 02:00:00 17,8 10,4 5 3 12 7 ZZO 1018,4 50 0,0

tt = temperatuur
td = dauwpunt
ff = windsnelheid
fx = windstoten
dd = windrichting
ppp = luchtdruk
vv = zicht
rr = neerslag

Weerstations in de omgeving